Time,TemperatureF,DewpointF,PressureIn,WindDirection,WindDirectionDegrees,WindSpeedMPH,WindSpeedGustMPH,Humidity,HourlyPrecipIn,Conditions,Clouds,dailyrainin,SoftwareType,DateUTC
2013-02-22 00:01:00,24.0,23.0,29.94,East,92,7.0,-999.0,95,-99.99,,,-99.99,,2013-02-22 06:01:00,
2013-02-22 00:11:00,24.0,23.0,29.94,East,92,7.0,-999.0,95,-99.99,,,-99.99,,2013-02-22 06:11:00,
2013-02-22 00:22:00,24.0,23.0,29.93,East,90,8.0,-999.0,95,-99.99,,,-99.99,,2013-02-22 06:22:00,
2013-02-22 00:31:00,25.0,24.0,29.92,ENE,74,9.0,-999.0,95,-99.99,,,-99.99,,2013-02-22 06:31:00,
2013-02-22 00:42:00,25.0,24.0,29.92,ENE,74,9.0,-999.0,95,-99.99,,,-99.99,,2013-02-22 06:42:00,
2013-02-22 00:52:00,25.0,24.0,29.92,East,93,7.0,-999.0,95,-99.99,,,-99.99,,2013-02-22 06:52:00,
2013-02-22 01:01:00,25.0,24.0,29.91,East,86,8.0,-999.0,95,-99.99,,,-99.99,,2013-02-22 07:01:00,
2013-02-22 01:11:00,25.0,24.0,29.91,East,86,8.0,-999.0,95,-99.99,,,-99.99,,2013-02-22 07:11:00,
2013-02-22 01:21:00,25.0,24.0,29.91,East,93,8.0,-999.0,95,-99.99,,,-99.99,,2013-02-22 07:21:00,
2013-02-22 01:31:00,25.0,24.0,29.91,East,81,8.0,-999.0,95,-99.99,,,-99.99,,2013-02-22 07:31:00,
2013-02-22 01:42:00,25.0,24.0,29.91,East,81,8.0,-999.0,95,-99.99,,,-99.99,,2013-02-22 07:42:00,
2013-02-22 01:52:00,25.0,24.0,29.90,ENE,74,7.0,-999.0,95,-99.99,,,-99.99,,2013-02-22 07:52:00,
2013-02-22 02:01:00,25.0,24.0,29.90,East,98,7.0,-999.0,95,-99.99,,,-99.99,,2013-02-22 08:01:00,
2013-02-22 02:11:00,25.0,24.0,29.90,East,98,7.0,-999.0,95,-99.99,,,-99.99,,2013-02-22 08:11:00,
2013-02-22 02:21:00,25.0,24.0,29.89,ENE,78,7.0,-999.0,95,-99.99,,,-99.99,,2013-02-22 08:21:00,
2013-02-22 02:31:00,25.0,24.0,29.88,East,88,8.0,-999.0,95,-99.99,,,-99.99,,2013-02-22 08:31:00,
2013-02-22 02:41:00,25.0,24.0,29.88,East,88,8.0,-999.0,95,-99.99,,,-99.99,,2013-02-22 08:41:00,
2013-02-22 02:52:00,25.0,24.0,29.88,East,88,7.0,-999.0,95,-99.99,,,-99.99,,2013-02-22 08:52:00,
2013-02-22 03:03:00,25.0,24.0,29.87,East,83,7.0,-999.0,95,-99.99,,,-99.99,,2013-02-22 09:03:00,
2013-02-22 03:11:00,25.0,24.0,29.86,East,80,6.0,-999.0,95,-99.99,,,-99.99,,2013-02-22 09:11:00,
2013-02-22 03:21:00,25.0,24.0,29.86,East,80,6.0,-999.0,95,-99.99,,,-99.99,,2013-02-22 09:21:00,
2013-02-22 03:32:00,25.0,24.0,29.85,East,86,6.0,-999.0,95,-99.99,,,-99.99,,2013-02-22 09:32:00,
2013-02-22 03:42:00,25.0,24.0,29.85,East,86,6.0,-999.0,95,-99.99,,,-99.99,,2013-02-22 09:42:00,
2013-02-22 03:52:00,25.0,24.0,29.85,East,85,6.0,-999.0,95,-99.99,,,-99.99,,2013-02-22 09:52:00,
2013-02-22 04:01:00,25.0,24.0,29.84,ENE,74,5.0,-999.0,94,-99.99,,,-99.99,,2013-02-22 10:01:00,
2013-02-22 04:11:00,25.0,24.0,29.84,ENE,74,5.0,-999.0,94,-99.99,,,-99.99,,2013-02-22 10:11:00,
2013-02-22 04:21:00,25.0,24.0,29.84,East,82,5.0,-999.0,95,-99.99,,,-99.99,,2013-02-22 10:21:00,
2013-02-22 04:32:00,25.0,24.0,29.83,East,81,5.0,-999.0,95,-99.99,,,-99.99,,2013-02-22 10:32:00,
2013-02-22 04:42:00,25.0,24.0,29.83,East,81,5.0,-999.0,95,-99.99,,,-99.99,,2013-02-22 10:42:00,
2013-02-22 04:52:00,26.0,25.0,29.83,ENE,76,6.0,-999.0,95,-99.99,,,-99.99,,2013-02-22 10:52:00,
2013-02-22 05:01:00,26.0,25.0,29.83,ENE,73,6.0,-999.0,94,-99.99,,,-99.99,,2013-02-22 11:01:00,
2013-02-22 05:11:00,26.0,25.0,29.83,ENE,73,6.0,-999.0,94,-99.99,,,-99.99,,2013-02-22 11:11:00,
2013-02-22 05:21:00,26.0,25.0,29.83,ENE,76,5.0,-999.0,95,-99.99,,,-99.99,,2013-02-22 11:21:00,
2013-02-22 05:32:00,25.0,24.0,29.83,East,84,4.0,-999.0,95,-99.99,,,-99.99,,2013-02-22 11:32:00,
2013-02-22 05:42:00,25.0,24.0,29.83,East,84,4.0,-999.0,95,-99.99,,,-99.99,,2013-02-22 11:42:00,
2013-02-22 05:52:00,25.0,24.0,29.82,ENE,68,4.0,-999.0,95,-99.99,,,-99.99,,2013-02-22 11:52:00,
2013-02-22 06:02:00,25.0,24.0,29.82,ENE,59,5.0,-999.0,95,-99.99,,,-99.99,,2013-02-22 12:02:00,
2013-02-22 06:11:00,25.0,24.0,29.82,ENE,59,5.0,-999.0,95,-99.99,,,-99.99,,2013-02-22 12:11:00,
2013-02-22 06:22:00,25.0,24.0,29.81,East,88,6.0,-999.0,95,-99.99,,,-99.99,,2013-02-22 12:22:00,
2013-02-22 06:32:00,25.0,24.0,29.80,ENE,66,6.0,-999.0,95,-99.99,,,-99.99,,2013-02-22 12:32:00,
2013-02-22 06:42:00,25.0,24.0,29.80,ENE,66,6.0,-999.0,95,-99.99,,,-99.99,,2013-02-22 12:42:00,
2013-02-22 06:52:00,26.0,25.0,29.80,East,83,6.0,-999.0,95,-99.99,,,-99.99,,2013-02-22 12:52:00,
2013-02-22 07:01:00,26.0,25.0,29.81,East,88,4.0,-999.0,95,-99.99,,,-99.99,,2013-02-22 13:01:00,
2013-02-22 07:11:00,26.0,25.0,29.81,East,88,4.0,-999.0,95,-99.99,,,-99.99,,2013-02-22 13:11:00,
2013-02-22 07:22:00,26.0,25.0,29.80,East,98,5.0,-999.0,95,-99.99,,,-99.99,,2013-02-22 13:22:00,
2013-02-22 07:32:00,26.0,25.0,29.82,East,85,4.0,-999.0,95,-99.99,,,-99.99,,2013-02-22 13:32:00,
2013-02-22 07:42:00,26.0,25.0,29.82,East,85,4.0,-999.0,95,-99.99,,,-99.99,,2013-02-22 13:42:00,
2013-02-22 07:52:00,26.0,25.0,29.82,East,84,2.0,-999.0,95,-99.99,,,-99.99,,2013-02-22 13:52:00,
2013-02-22 08:01:00,26.0,25.0,29.82,East,81,0.0,-999.0,95,-99.99,,,-99.99,,2013-02-22 14:01:00,
2013-02-22 08:11:00,27.0,26.0,29.81,East,80,1.0,-999.0,95,-99.99,,,-99.99,,2013-02-22 14:11:00,
2013-02-22 08:21:00,27.0,26.0,29.81,East,80,1.0,-999.0,95,-99.99,,,-99.99,,2013-02-22 14:21:00,
2013-02-22 08:32:00,27.0,26.0,29.82,East,80,3.0,-999.0,95,-99.99,,,-99.99,,2013-02-22 14:32:00,
2013-02-22 08:42:00,27.0,26.0,29.82,East,80,3.0,-999.0,95,-99.99,,,-99.99,,2013-02-22 14:42:00,
2013-02-22 08:53:00,27.0,26.0,29.81,ENE,76,3.0,-999.0,95,-99.99,,,-99.99,,2013-02-22 14:53:00,
2013-02-22 09:01:00,27.0,26.0,29.82,East,80,0.0,-999.0,95,-99.99,,,-99.99,,2013-02-22 15:01:00,
2013-02-22 09:11:00,27.0,26.0,29.82,East,80,0.0,-999.0,95,-99.99,,,-99.99,,2013-02-22 15:11:00,
2013-02-22 09:21:00,27.0,26.0,29.82,East,80,0.0,-999.0,96,-99.99,,,-99.99,,2013-02-22 15:21:00,
2013-02-22 09:32:00,28.0,27.0,29.82,East,81,0.0,-999.0,96,-99.99,,,-99.99,,2013-02-22 15:32:00,
2013-02-22 09:41:00,28.0,27.0,29.82,East,81,0.0,-999.0,96,-99.99,,,-99.99,,2013-02-22 15:41:00,
2013-02-22 09:52:00,28.0,27.0,29.83,East,80,0.0,-999.0,96,-99.99,,,-99.99,,2013-02-22 15:52:00,
2013-02-22 10:01:00,28.0,27.0,29.83,East,80,0.0,-999.0,96,-99.99,,,-99.99,,2013-02-22 16:01:00,
2013-02-22 10:12:00,28.0,27.0,29.83,East,80,0.0,-999.0,96,-99.99,,,-99.99,,2013-02-22 16:12:00,
2013-02-22 10:21:00,29.0,28.0,29.83,East,81,0.0,-999.0,96,-99.99,,,-99.99,,2013-02-22 16:21:00,
2013-02-22 10:31:00,30.0,29.0,29.83,SSE,155,0.0,-999.0,96,-99.99,,,-99.99,,2013-02-22 16:31:00,
2013-02-22 10:42:00,30.0,29.0,29.83,SSE,155,0.0,-999.0,96,-99.99,,,-99.99,,2013-02-22 16:42:00,
2013-02-22 10:52:00,30.0,29.0,29.83,South,186,1.0,-999.0,96,-99.99,,,-99.99,,2013-02-22 16:52:00,
2013-02-22 11:01:00,31.0,30.0,29.83,SSE,163,0.0,-999.0,96,-99.99,,,-99.99,,2013-02-22 17:01:00,
2013-02-22 11:11:00,31.0,30.0,29.83,SSE,163,0.0,-999.0,96,-99.99,,,-99.99,,2013-02-22 17:11:00,
2013-02-22 11:21:00,31.0,30.0,29.84,SSE,150,0.0,-999.0,96,-99.99,,,-99.99,,2013-02-22 17:21:00,
2013-02-22 11:31:00,32.0,31.0,29.83,SW,223,4.0,-999.0,95,-99.99,,,-99.99,,2013-02-22 17:31:00,
2013-02-22 11:42:00,32.0,31.0,29.83,SW,223,4.0,-999.0,95,-99.99,,,-99.99,,2013-02-22 17:42:00,
2013-02-22 11:52:00,32.0,30.0,29.84,SW,234,7.0,-999.0,94,-99.99,,,-99.99,,2013-02-22 17:52:00,
2013-02-22 12:01:00,32.0,30.0,29.84,SW,229,9.0,-999.0,93,-99.99,,,-99.99,,2013-02-22 18:01:00,
2013-02-22 12:12:00,33.0,31.0,29.84,SW,227,7.0,-999.0,92,-99.99,,,-99.99,,2013-02-22 18:12:00,
2013-02-22 12:22:00,33.0,31.0,29.84,SW,227,7.0,-999.0,92,-99.99,,,-99.99,,2013-02-22 18:22:00,
2013-02-22 12:32:00,32.0,30.0,29.83,WSW,244,10.0,-999.0,91,-99.99,,,-99.99,,2013-02-22 18:32:00,
2013-02-22 12:42:00,32.0,30.0,29.83,WSW,244,10.0,-999.0,91,-99.99,,,-99.99,,2013-02-22 18:42:00,
2013-02-22 12:52:00,33.0,31.0,29.83,SW,225,8.0,-999.0,91,-99.99,,,-99.99,,2013-02-22 18:52:00,
2013-02-22 13:01:00,33.0,30.0,29.83,SW,224,8.0,-999.0,88,-99.99,,,-99.99,,2013-02-22 19:01:00,
2013-02-22 13:11:00,32.0,29.0,29.84,SW,232,11.0,-999.0,88,-99.99,,,-99.99,,2013-02-22 19:11:00,
2013-02-22 13:21:00,32.0,29.0,29.84,SW,232,11.0,-999.0,88,-99.99,,,-99.99,,2013-02-22 19:21:00,
2013-02-22 13:31:00,31.0,28.0,29.84,SW,228,12.0,-999.0,88,-99.99,,,-99.99,,2013-02-22 19:31:00,
2013-02-22 13:41:00,31.0,28.0,29.84,SW,228,12.0,-999.0,88,-99.99,,,-99.99,,2013-02-22 19:41:00,
2013-02-22 13:52:00,31.0,28.0,29.85,SW,228,11.0,-999.0,87,-99.99,,,-99.99,,2013-02-22 19:52:00,
2013-02-22 14:01:00,30.0,26.0,29.86,SW,232,14.0,-999.0,86,-99.99,,,-99.99,,2013-02-22 20:01:00,
2013-02-22 14:11:00,30.0,26.0,29.86,SW,232,14.0,-999.0,86,-99.99,,,-99.99,,2013-02-22 20:11:00,
2013-02-22 14:21:00,30.0,26.0,29.86,WSW,238,14.0,-999.0,86,-99.99,,,-99.99,,2013-02-22 20:21:00,
2013-02-22 14:31:00,29.0,25.0,29.87,WSW,242,14.0,-999.0,86,-99.99,,,-99.99,,2013-02-22 20:31:00,
2013-02-22 14:41:00,29.0,25.0,29.87,WSW,242,14.0,-999.0,86,-99.99,,,-99.99,,2013-02-22 20:41:00,
2013-02-22 14:52:00,29.0,25.0,29.87,WSW,243,14.0,-999.0,86,-99.99,,,-99.99,,2013-02-22 20:52:00,
2013-02-22 15:01:00,29.0,25.0,29.88,SW,232,13.0,-999.0,86,-99.99,,,-99.99,,2013-02-22 21:01:00,
2013-02-22 15:11:00,29.0,25.0,29.88,SW,232,13.0,-999.0,86,-99.99,,,-99.99,,2013-02-22 21:11:00,
2013-02-22 15:21:00,30.0,26.0,29.87,SW,232,14.0,-999.0,84,-99.99,,,-99.99,,2013-02-22 21:21:00,
2013-02-22 15:32:00,30.0,26.0,29.88,WSW,238,13.0,-999.0,84,-99.99,,,-99.99,,2013-02-22 21:32:00,
2013-02-22 15:42:00,30.0,26.0,29.88,WSW,238,13.0,-999.0,84,-99.99,,,-99.99,,2013-02-22 21:42:00,
2013-02-22 15:52:00,30.0,26.0,29.88,WSW,244,8.0,-999.0,86,-99.99,,,-99.99,,2013-02-22 21:52:00,
2013-02-22 16:01:00,29.0,25.0,29.89,SW,234,12.0,-999.0,86,-99.99,,,-99.99,,2013-02-22 22:01:00,
2013-02-22 16:11:00,29.0,25.0,29.89,SW,234,12.0,-999.0,86,-99.99,,,-99.99,,2013-02-22 22:11:00,
2013-02-22 16:21:00,29.0,25.0,29.89,WSW,244,13.0,-999.0,85,-99.99,,,-99.99,,2013-02-22 22:21:00,
2013-02-22 16:31:00,29.0,25.0,29.89,WSW,250,11.0,-999.0,85,-99.99,,,-99.99,,2013-02-22 22:31:00,
2013-02-22 16:41:00,29.0,25.0,29.89,WSW,250,11.0,-999.0,85,-99.99,,,-99.99,,2013-02-22 22:41:00,
2013-02-22 16:52:00,29.0,25.0,29.90,WSW,251,12.0,-999.0,85,-99.99,,,-99.99,,2013-02-22 22:52:00,
2013-02-22 17:01:00,29.0,25.0,29.90,SW,232,10.0,-999.0,85,-99.99,,,-99.99,,2013-02-22 23:01:00,
2013-02-22 17:11:00,29.0,25.0,29.90,SW,232,10.0,-999.0,85,-99.99,,,-99.99,,2013-02-22 23:11:00,
2013-02-22 17:21:00,29.0,25.0,29.91,WSW,250,11.0,-999.0,85,-99.99,,,-99.99,,2013-02-22 23:21:00,
2013-02-22 17:31:00,28.0,24.0,29.91,WSW,248,10.0,-999.0,85,-99.99,,,-99.99,,2013-02-22 23:31:00,
2013-02-22 17:41:00,28.0,24.0,29.91,WSW,248,10.0,-999.0,85,-99.99,,,-99.99,,2013-02-22 23:41:00,
2013-02-22 17:52:00,28.0,24.0,29.91,WSW,238,10.0,-999.0,86,-99.99,,,-99.99,,2013-02-22 23:52:00,
2013-02-22 18:01:00,28.0,24.0,29.92,SW,236,9.0,-999.0,86,-99.99,,,-99.99,,2013-02-23 00:01:00,
2013-02-22 18:11:00,28.0,24.0,29.92,SW,236,9.0,-999.0,86,-99.99,,,-99.99,,2013-02-23 00:11:00,
2013-02-22 18:21:00,28.0,25.0,29.92,WSW,241,9.0,-999.0,87,-99.99,,,-99.99,,2013-02-23 00:21:00,
2013-02-22 18:32:00,28.0,25.0,29.92,SW,227,10.0,-999.0,88,-99.99,,,-99.99,,2013-02-23 00:32:00,
2013-02-22 18:42:00,28.0,25.0,29.92,SW,227,10.0,-999.0,88,-99.99,,,-99.99,,2013-02-23 00:42:00,
2013-02-22 18:52:00,28.0,25.0,29.93,WSW,243,9.0,-999.0,87,-99.99,,,-99.99,,2013-02-23 00:52:00,
2013-02-22 19:01:00,28.0,24.0,29.93,SW,234,8.0,-999.0,86,-99.99,,,-99.99,,2013-02-23 01:01:00,
2013-02-22 19:11:00,28.0,24.0,29.93,SW,234,8.0,-999.0,86,-99.99,,,-99.99,,2013-02-23 01:11:00,
2013-02-22 19:21:00,28.0,24.0,29.93,WSW,237,9.0,-999.0,86,-99.99,,,-99.99,,2013-02-23 01:21:00,
2013-02-22 19:31:00,28.0,24.0,29.94,WSW,238,9.0,-999.0,85,-99.99,,,-99.99,,2013-02-23 01:31:00,
2013-02-22 19:42:00,28.0,24.0,29.94,WSW,238,9.0,-999.0,85,-99.99,,,-99.99,,2013-02-23 01:42:00,
2013-02-22 19:52:00,28.0,24.0,29.94,SW,230,8.0,-999.0,85,-99.99,,,-99.99,,2013-02-23 01:52:00,
2013-02-22 20:01:00,28.0,24.0,29.95,WSW,240,9.0,-999.0,84,-99.99,,,-99.99,,2013-02-23 02:01:00,
2013-02-22 20:11:00,28.0,24.0,29.95,WSW,240,9.0,-999.0,84,-99.99,,,-99.99,,2013-02-23 02:11:00,
2013-02-22 20:21:00,28.0,24.0,29.95,WSW,240,9.0,-999.0,84,-99.99,,,-99.99,,2013-02-23 02:21:00,
2013-02-22 20:31:00,27.0,23.0,29.95,WSW,246,10.0,-999.0,85,-99.99,,,-99.99,,2013-02-23 02:31:00,
2013-02-22 20:42:00,27.0,23.0,29.95,WSW,246,10.0,-999.0,85,-99.99,,,-99.99,,2013-02-23 02:42:00,
2013-02-22 20:52:00,27.0,23.0,29.95,WSW,248,10.0,-999.0,85,-99.99,,,-99.99,,2013-02-23 02:52:00,
2013-02-22 21:01:00,27.0,25.0,29.95,SW,236,9.0,-999.0,92,-99.99,,,-99.99,,2013-02-23 03:01:00,
2013-02-22 21:11:00,27.0,25.0,29.95,SW,236,9.0,-999.0,92,-99.99,,,-99.99,,2013-02-23 03:11:00,
2013-02-22 21:21:00,27.0,23.0,29.96,SW,228,10.0,-999.0,86,-99.99,,,-99.99,,2013-02-23 03:21:00,
2013-02-22 21:32:00,27.0,23.0,29.96,SW,236,10.0,-999.0,86,-99.99,,,-99.99,,2013-02-23 03:32:00,
2013-02-22 21:41:00,27.0,23.0,29.96,SW,236,10.0,-999.0,86,-99.99,,,-99.99,,2013-02-23 03:41:00,
2013-02-22 21:52:00,27.0,23.0,29.96,WSW,248,10.0,-999.0,86,-99.99,,,-99.99,,2013-02-23 03:52:00,
2013-02-22 22:01:00,27.0,24.0,29.96,WSW,243,8.0,-999.0,87,-99.99,,,-99.99,,2013-02-23 04:01:00,
2013-02-22 22:11:00,27.0,24.0,29.96,WSW,242,7.0,-999.0,87,-99.99,,,-99.99,,2013-02-23 04:11:00,
2013-02-22 22:21:00,27.0,24.0,29.96,WSW,242,7.0,-999.0,87,-99.99,,,-99.99,,2013-02-23 04:21:00,
2013-02-22 22:31:00,27.0,23.0,29.96,WSW,244,8.0,-999.0,86,-99.99,,,-99.99,,2013-02-23 04:31:00,
2013-02-22 22:41:00,27.0,23.0,29.96,WSW,244,8.0,-999.0,86,-99.99,,,-99.99,,2013-02-23 04:41:00,
2013-02-22 22:52:00,27.0,23.0,29.96,WSW,253,11.0,-999.0,85,-99.99,,,-99.99,,2013-02-23 04:52:00,
2013-02-22 23:02:00,26.0,22.0,29.97,West,259,11.0,-999.0,85,-99.99,,,-99.99,,2013-02-23 05:02:00,
2013-02-22 23:12:00,26.0,22.0,29.97,West,259,11.0,-999.0,85,-99.99,,,-99.99,,2013-02-23 05:12:00,
2013-02-22 23:22:00,26.0,22.0,29.97,West,259,11.0,-999.0,85,-99.99,,,-99.99,,2013-02-23 05:22:00,
2013-02-22 23:32:00,25.0,21.0,29.96,WSW,256,10.0,-999.0,86,-99.99,,,-99.99,,2013-02-23 05:32:00,
2013-02-22 23:41:00,25.0,21.0,29.96,WSW,256,10.0,-999.0,86,-99.99,,,-99.99,,2013-02-23 05:41:00,
2013-02-22 23:52:00,25.0,21.0,29.96,WSW,237,8.0,-999.0,86,-99.99,,,-99.99,,2013-02-23 05:52:00,